DW4559 Weather Reports


time (UTC)temp
C
wind
direction
speed
KPH
gust
KPH
rain 1hr
cm
rain 24hr
cm
rain mn
cm
humidity
%
barometer
mb
20260504140904 18 303 3.2 8.0 0.00 0.00 0.00 46 1007.9
20260504140404 17 324 3.2 4.8 0.00 0.00 0.00 45 1007.8
20260504130405 16 303 3.2 4.8 0.00 0.00 0.00 48 1008.5
20260504110404 10 309 1.6 4.8 0.00 0.00 0.00 62 1008.7
20260504081905 5 350 0.0 1.6 0.00 0.00 0.00 78 1007.8
20260504081404 5 38 0.0 0.0 0.00 0.00 0.00 78 1007.8
20260504070405 5 10 0.0 1.6 0.00 0.00 0.00 79 1007.2
20260504050404 3 359 0.0 0.0 0.00 0.00 0.00 79 1007.1
20260504045904 3 359 0.0 0.0 0.00 0.00 0.00 78 1007.1
20260504045404 4 359 0.0 0.0 0.00 0.00 0.00 77 1007.0
20260504044905 4 359 0.0 0.0 0.00 0.00 0.00 76 1007.0
20260504044405 4 359 0.0 0.0 0.00 0.00 0.00 76 1007.0
20260504043405 4 359 0.0 0.0 0.00 0.00 0.00 76 1007.0
20260504042405 4 341 0.0 0.0 0.00 0.00 0.00 74 1007.0
20260504041905 4 341 0.0 0.0 0.00 0.00 0.00 75 1007.0
20260504041405 4 341 0.0 0.0 0.00 0.00 0.00 76 1007.0
20260504040404 5 341 0.0 0.0 0.00 0.00 0.00 74 1007.0
20260504035904 5 341 0.0 1.6 0.00 0.00 0.00 72 1007.0
20260504035405 5 352 0.0 0.0 0.00 0.00 0.00 74 1006.9
20260504034904 4 352 0.0 0.0 0.00 0.00 0.00 74 1006.9
20260504034405 5 352 0.0 0.0 0.00 0.00 0.00 72 1006.8
20260504033904 5 333 0.0 0.0 0.00 0.00 0.00 72 1006.8
20260504033405 5 333 0.0 0.0 0.00 0.00 0.00 73 1006.8
20260504032904 5 333 0.0 0.0 0.00 0.00 0.00 72 1006.8
20260504032404 5 333 0.0 0.0 0.00 0.00 0.00 72 1006.8
20260504031905 5 333 0.0 0.0 0.00 0.00 0.00 71 1006.8
20260504031404 5 333 0.0 0.0 0.00 0.00 0.00 70 1006.8
20260504030904 5 333 0.0 0.0 0.00 0.00 0.00 71 1006.8
20260504030404 5 333 0.0 0.0 0.00 0.00 0.00 69 1006.8
20260504025904 5 333 0.0 0.0 0.00 0.00 0.00 68 1006.8
20260504025404 5 333 0.0 0.0 0.00 0.00 0.00 69 1006.8
20260504024904 6 333 0.0 0.0 0.00 0.00 0.00 68 1006.8
20260504024404 6 333 0.0 0.0 0.00 0.00 0.00 68 1006.8
20260504023904 6 333 0.0 0.0 0.00 0.00 0.00 70 1006.8
20260504023404 6 333 0.0 0.0 0.00 0.00 0.00 68 1006.7
20260504022904 6 333 0.0 0.0 0.00 0.00 0.00 68 1006.7
20260504022404 6 333 0.0 0.0 0.00 0.00 0.00 67 1006.7
20260504021904 6 333 0.0 0.0 0.00 0.00 0.00 66 1006.7
20260504021404 7 333 0.0 0.0 0.00 0.00 0.00 65 1006.7
20260504020404 7 333 0.0 0.0 0.00 0.00 0.00 63 1006.7
20260504015904 7 333 0.0 0.0 0.00 0.00 0.00 62 1006.7
20260504015404 7 333 0.0 0.0 0.00 0.00 0.00 63 1006.7
20260504014905 8 333 0.0 0.0 0.00 0.00 0.00 61 1006.7
20260504013904 8 354 0.0 0.0 0.00 0.00 0.00 59 1006.6
20260504013404 8 350 0.0 1.6 0.00 0.00 0.00 59 1006.5
20260504012904 9 320 0.0 0.0 0.00 0.00 0.00 57 1006.4
20260504012404 9 320 0.0 1.6 0.00 0.00 0.00 55 1006.4
20260504011905 10 327 0.0 1.6 0.00 0.00 0.00 54 1006.4
20260504011404 10 326 1.6 1.6 0.00 0.00 0.00 53 1006.4
20260504010904 10 318 0.0 1.6 0.00 0.00 0.00 52 1006.3
20260504010404 10 328 0.0 1.6 0.00 0.00 0.00 52 1006.2
20260504005404 10 319 0.0 1.6 0.00 0.00 0.00 53 1006.0
20260504004904 10 306 0.0 0.0 0.00 0.00 0.00 53 1006.0
20260504004404 10 335 0.0 0.0 0.00 0.00 0.00 53 1005.9
20260504003905 10 335 0.0 1.6 0.00 0.00 0.00 53 1005.9
20260504002904 10 333 0.0 0.0 0.00 0.00 0.00 52 1005.7
20260504002404 11 333 0.0 1.6 0.00 0.00 0.00 51 1005.6
20260504001404 11 317 0.0 3.2 0.00 0.00 0.00 50 1005.5
20260504000905 11 331 0.0 3.2 0.00 0.00 0.00 48 1005.4
20260504000404 11 340 1.6 3.2 0.00 0.00 0.00 48 1005.3
20260503235904 11 347 0.0 3.2 0.00 0.00 0.00 47 1005.3
20260503234904 12 321 1.6 4.8 0.00 0.00 0.00 44 1005.1
20260503234404 12 314 1.6 3.2 0.00 0.00 0.00 44 1005.1
20260503233904 12 326 1.6 4.8 0.00 0.00 0.00 43 1005.1
20260503233404 12 331 3.2 4.8 0.00 0.00 0.00 42 1005.0
20260503231905 13 332 3.2 9.7 0.00 0.00 0.00 41 1004.8
20260503231405 13 327 3.2 8.0 0.00 0.00 0.00 41 1004.8
20260503230904 14 307 3.2 12.9 0.00 0.00 0.00 41 1004.8
20260503230404 15 340 3.2 8.0 0.00 0.00 0.00 40 1004.8
20260503225905 14 331 0.0 3.2 0.00 0.00 0.00 40 1004.7
20260503225404 14 343 1.6 3.2 0.00 0.00 0.00 39 1004.7
20260503224905 14 337 4.8 12.9 0.00 0.00 0.00 38 1004.7
20260503223405 15 0 1.6 4.8 0.00 0.00 0.00 40 1004.6
20260503222904 15 319 1.6 8.0 0.00 0.00 0.00 39 1004.6
20260503222404 15 333 3.2 11.3 0.00 0.00 0.00 38 1004.5
20260503221904 15 311 3.2 9.7 0.00 0.00 0.00 38 1004.5
20260503220904 15 330 3.2 9.7 0.00 0.00 0.00 38 1004.5
20260503220405 14 313 4.8 11.3 0.00 0.00 0.00 38 1004.5
20260503215904 14 331 4.8 11.3 0.00 0.00 0.00 37 1004.5
20260503215404 14 317 6.4 12.9 0.00 0.00 0.00 38 1004.4
20260503214904 14 351 3.2 8.0 0.00 0.00 0.00 38 1004.5
20260503214404 13 347 4.8 11.3 0.00 0.00 0.00 39 1004.5
20260503213404 13 337 4.8 11.3 0.00 0.00 0.00 39 1004.4
20260503212905 13 321 6.4 12.9 0.00 0.00 0.00 40 1004.3
20260503212404 13 327 3.2 11.3 0.00 0.00 0.00 41 1004.2
20260503211904 13 321 6.4 19.3 0.00 0.00 0.00 40 1004.3
20260503211404 13 316 4.8 12.9 0.00 0.00 0.00 41 1004.2
20260503210404 13 336 3.2 9.7 0.00 0.00 0.00 41 1004.2
20260503205904 13 347 4.8 12.9 0.00 0.00 0.00 40 1004.1
20260503205404 13 332 4.8 12.9 0.00 0.00 0.00 40 1004.1
20260503204904 13 315 4.8 16.1 0.00 0.00 0.00 40 1004.2
20260503204404 13 326 4.8 16.1 0.00 0.00 0.00 41 1004.3
20260503203904 13 316 8.0 14.5 0.00 0.00 0.00 41 1004.2
20260503203404 13 344 6.4 19.3 0.00 0.00 0.00 41 1004.3
20260503202904 13 319 4.8 12.9 0.00 0.00 0.00 41 1004.2
20260503202405 13 325 8.0 19.3 0.00 0.00 0.00 41 1004.2
20260503201404 13 313 8.0 14.5 0.00 0.00 0.00 41 1004.3
20260503200905 13 303 8.0 14.5 0.00 0.00 0.00 41 1004.4
20260503200404 13 335 6.4 14.5 0.00 0.00 0.00 42 1004.4
20260503195404 13 309 6.4 12.9 0.00 0.00 0.00 45 1004.4
20260503194905 12 351 6.4 16.1 0.00 0.00 0.00 44 1004.4
20260503194405 12 330 8.0 19.3 0.00 0.00 0.00 43 1004.4
20260503193904 13 318 9.7 20.9 0.00 0.00 0.00 42 1004.4
20260503193405 13 334 8.0 16.1 0.00 0.00 0.00 43 1004.4
20260503192904 13 343 8.0 14.5 0.00 0.00 0.00 43 1004.5
20260503191405 13 328 8.0 14.5 0.00 0.00 0.00 42 1004.6
20260503190904 13 333 4.8 11.3 0.00 0.00 0.00 42 1004.6
20260503190404 13 322 8.0 14.5 0.00 0.00 0.00 42 1004.5
20260503185904 13 334 8.0 14.5 0.00 0.00 0.00 42 1004.5
20260503185404 13 315 8.0 19.3 0.00 0.00 0.00 43 1004.4
20260503184904 13 322 8.0 14.5 0.00 0.00 0.00 43 1004.5
20260503183904 13 334 9.7 20.9 0.00 0.00 0.00 42 1004.5
20260503183405 13 352 6.4 12.9 0.00 0.00 0.00 40 1004.4
20260503182905 13 338 8.0 14.5 0.00 0.00 0.00 40 1004.4
20260503182404 13 331 8.0 14.5 0.00 0.00 0.00 41 1004.4
20260503181404 12 323 8.0 12.9 0.00 0.00 0.00 43 1004.4
20260503180904 13 336 8.0 12.9 0.00 0.00 0.00 42 1004.5
20260503180404 13 329 4.8 14.5 0.00 0.00 0.00 42 1004.5
20260503175904 13 325 3.2 9.7 0.00 0.00 0.00 44 1004.4
20260503174904 12 272 6.4 12.9 0.00 0.00 0.00 44 1004.5
20260503174403 12 329 3.2 11.3 0.00 0.00 0.00 45 1004.7
20260503173904 12 321 6.4 16.1 0.00 0.00 0.00 44 1004.6
20260503173404 12 309 4.8 12.9 0.00 0.00 0.00 44 1004.6
20260503172904 11 341 6.4 14.5 0.00 0.00 0.00 46 1004.6
20260503172404 12 295 8.0 14.5 0.00 0.00 0.00 45 1004.6
20260503171904 12 308 8.0 12.9 0.00 0.00 0.00 46 1004.7
20260503171404 12 357 4.8 14.5 0.00 0.00 0.00 47 1004.7
20260503170904 12 324 6.4 22.5 0.00 0.00 0.00 47 1004.8
20260503170404 11 331 6.4 12.9 0.00 0.00 0.00 48 1004.8
20260503150904 11 338 4.8 12.9 0.00 0.00 0.00 52 1004.8
20260503150404 11 331 6.4 12.9 0.00 0.00 0.00 53 1004.9